Hanford, WA
on Monday, November 19, 2012

Monday
Previous Day Next Day
Daily Summary
 ActualAverage (KMWH)Record (KMWH)
Temperature
Mean Temperature °F 36°F  
Max Temperature 63°F 44°F 60°F (2013)
Min Temperature 48°F 28°F 9°F (1985)
Degree Days
Heating Degree Days 10 29  
Month to date heating degree days 481  
Since 1 July heating degree days 1118  
Cooling Degree Days 0 0  
Month to date cooling degree days 0  
Year to date cooling degree days 615  
Growing Degree Days6 (Base °F )  
Moisture
Dew Point 39°F   
Average Humidity 55    
Maximum Humidity 77    
Minimum Humidity 39    
Precipitation
Precipitation 0.01 in 0.04 in 0.27 in (1997)
Month to date precipitation 0.73  
Year to date precipitation 7.20  
Wind
Wind Speed 19 mph   
Max Wind Speed 28 mph   
Max Gust Speed 39 mph   
Visibility 15 miles   
Events Rain   

Key: T is trace of precipitation, MM is missing value
Source: NWS Daily Summary
Time(PST)TemperatureDew PointHumidity Pressure Visibility Wind DirectionWind SpeedGust SpeedPrecipitationEvents Conditions
12:50 AM 50.4°F 38.3°F 63% 29.75 in 15.0 miles South 24.2 mph 32.2 mph N/A   Overcast
1:50 AM 50.4°F 39.4°F 66% 29.75 in 15.0 miles SSE 15.0 mph - N/A   Overcast
2:50 AM 51.4°F 38.1°F 60% 29.75 in 15.0 miles SSE 11.5 mph - N/A Rain Light Rain
3:50 AM 48.9°F 39.0°F 69% 29.71 in 15.0 miles SE 6.9 mph - N/A Rain Light Rain
4:50 AM 50.9°F 38.3°F 62% 29.71 in 15.0 miles ESE 10.4 mph - N/A   Overcast
5:50 AM 53.1°F 37.2°F 55% 29.69 in 15.0 miles SSE 18.4 mph 29.9 mph N/A   Overcast
6:50 AM 54.1°F 36.1°F 51% 29.68 in 15.0 miles SSE 23.0 mph 32.2 mph N/A   Mostly Cloudy
7:50 AM 56.7°F 35.4°F 45% 29.67 in 15.0 miles SSE 27.6 mph 34.5 mph N/A   Overcast
8:50 AM 57.4°F 35.8°F 44% 29.67 in 15.0 miles SSE 21.9 mph 29.9 mph N/A   Overcast
9:50 AM 58.5°F 35.8°F 43% 29.67 in 15.0 miles SSE 26.5 mph 39.1 mph N/A   Overcast
10:50 AM 59.5°F 36.5°F 42% 29.65 in 15.0 miles SSE 25.3 mph 34.5 mph N/A   Overcast
11:50 AM 60.3°F 37.0°F 42% 29.63 in 15.0 miles ESE 25.3 mph 35.7 mph N/A   Overcast
12:50 PM 60.6°F 37.6°F 42% 29.60 in 15.0 miles SE 13.8 mph 20.7 mph N/A   Overcast
1:50 PM 61.7°F 37.4°F 41% 29.59 in 15.0 miles SE 13.8 mph 20.7 mph N/A   Overcast
2:50 PM 63.3°F 37.8°F 39% 29.57 in 15.0 miles South 27.6 mph 35.7 mph N/A   Overcast
3:50 PM 61.9°F 40.3°F 45% 29.59 in 15.0 miles South 15.0 mph 24.2 mph 0.00 in Rain Light Rain
4:50 PM 60.8°F 40.8°F 48% 29.59 in 15.0 miles South 8.1 mph - 0.00 in Rain Light Rain
5:50 PM 56.7°F 46.2°F 68% 29.62 in 15.0 miles WSW 10.4 mph - 0.00 in Rain Light Rain
6:50 PM 54.5°F 47.1°F 76% 29.64 in 15.0 miles SW 18.4 mph 26.5 mph 0.01 in Rain Light Rain
10:50 PM 52.0°F 45.0°F 77% 29.69 in 15.0 miles SSW 20.7 mph 35.7 mph N/A Rain Light Rain
11:50 PM 53.4°F 44.2°F 71% 29.72 in 15.0 miles SSW 20.7 mph 29.9 mph N/A Rain Light Rain
Moon Phase
Nov. 19 Nov. 20 Nov. 28 Dec. 06 Dec. 13
Sunrise:07:06 AM (PST) Moon Rise:12:04 PM (PST)11/19
Sunset:04:20 PM (PST) Moon Set:11:03 PM (PST)11/19

Copyright © 2014 The Weather Underground, Inc.